EW1079 Weather Reports


Display with metric or nautical units.
time (UTC)temp
F
wind
direction
speed
MPH
gust
MPH
rain 1hr
in
rain 24hr
in
rain mn
in
humidity
%
barometer
mb
20181115183014 37 72 0.0 3.0 0.00 0.00 0.00 89 1029.5
20181115182511 37 70 0.0 3.0 0.00 0.00 0.00 90 1029.5
20181115181511 38 65 0.0 2.0 0.00 0.00 0.00 89 1029.4
20181115180511 39 63 1.0 3.0 0.00 0.00 0.00 89 1029.4
20181115180015 39 63 1.0 3.0 0.00 0.00 0.00 88 1029.3
20181115175014 40 56 2.0 4.0 0.00 0.00 0.00 90 1029.4
20181115174511 39 52 2.0 4.0 0.00 0.00 0.00 90 1029.2
20181115174014 39 51 1.0 3.0 0.00 0.00 0.00 90 1029.2
20181115173015 39 49 1.0 3.0 0.00 0.00 0.00 90 1029.2
20181115172511 39 49 0.0 2.0 0.00 0.00 0.00 89 1029.1
20181115172015 40 48 1.0 3.0 0.00 0.00 0.00 89 1029.1
20181115170510 39 45 0.0 2.0 0.00 0.00 0.00 89 1028.9
20181115170015 39 45 0.0 1.0 0.00 0.00 0.00 87 1028.9
20181115165511 40 45 0.0 2.0 0.00 0.00 0.00 88 1028.9
20181115165014 40 44 1.0 2.0 0.00 0.00 0.00 88 1028.9
20181115164014 41 40 0.0 2.0 0.00 0.00 0.00 88 1028.9
20181115163511 41 0 0.0 0.0 0.00 0.00 0.00 87 1028.8
20181115163015 41 0 0.0 0.0 0.00 0.00 0.00 86 1028.7
20181115160517 43 0 0.0 0.0 0.00 0.00 0.00 84 1028.7
20181115153515 45 0 0.0 0.0 0.00 0.00 0.00 80 1028.6
20181115153010 46 0 0.0 0.0 0.00 0.00 0.00 78 1028.6
20181115152514 46 0 0.0 0.0 0.00 0.00 0.00 78 1028.7
20181115152010 47 0 0.0 0.0 0.00 0.00 0.00 77 1028.8
20181115151011 48 328 1.0 3.0 0.00 0.00 0.00 76 1028.6
20181115150514 48 327 2.0 3.0 0.00 0.00 0.00 76 1028.6
20181115150010 48 326 2.0 3.0 0.00 0.00 0.00 76 1028.6
20181115145510 49 327 2.0 3.0 0.00 0.00 0.00 75 1028.5
20181115145015 49 324 2.0 3.0 0.00 0.00 0.00 75 1028.5
20181115144514 49 322 2.0 4.0 0.00 0.00 0.00 74 1028.5
20181115142514 50 346 1.0 3.0 0.00 0.00 0.00 72 1028.7
20181115142011 50 350 1.0 4.0 0.00 0.00 0.00 72 1028.7
20181115140515 50 346 2.0 5.0 0.00 0.00 0.00 71 1028.7
20181115140011 51 345 1.0 6.0 0.00 0.00 0.00 70 1028.7
20181115135010 51 349 2.0 5.0 0.00 0.00 0.00 69 1028.7
20181115133010 53 41 3.0 7.0 0.00 0.00 0.00 66 1028.7
20181115132515 53 36 2.0 7.0 0.00 0.00 0.00 66 1028.6
20181115131514 53 37 3.0 8.0 0.00 0.00 0.00 66 1028.7
20181115130514 53 65 2.0 8.0 0.00 0.00 0.00 65 1028.7
20181115125011 53 206 1.0 3.0 0.00 0.00 0.00 61 1028.6
20181115124514 53 224 2.0 4.0 0.00 0.00 0.00 62 1028.6
20181115123514 53 200 2.0 4.0 0.00 0.00 0.00 62 1028.6
20181115123010 54 223 2.0 5.0 0.00 0.00 0.00 62 1028.6
20181115121011 53 170 2.0 5.0 0.00 0.00 0.00 61 1028.7
20181115115010 53 210 2.0 5.0 0.00 0.00 0.00 65 1028.8
20181115114514 53 216 2.0 5.0 0.00 0.00 0.00 64 1028.7
20181115113011 53 218 4.0 8.0 0.00 0.00 0.00 64 1028.7
20181115112514 53 215 4.0 9.0 0.00 0.00 0.00 65 1028.8
20181115112011 53 208 4.0 9.0 0.00 0.00 0.00 65 1028.8
20181115110513 53 190 3.0 7.0 0.00 0.00 0.00 66 1028.9
20181115105514 53 199 4.0 9.0 0.00 0.00 0.00 66 1028.8
20181115104514 52 219 4.0 10.0 0.00 0.00 0.00 67 1029.0
20181115104011 53 215 3.0 8.0 0.00 0.00 0.00 68 1029.0
20181115103517 52 187 3.0 8.0 0.00 0.00 0.00 68 1029.0
20181115103010 52 158 3.0 6.0 0.00 0.00 0.00 70 1029.0
20181115102515 51 162 3.0 8.0 0.00 0.00 0.00 69 1029.0
20181115102011 51 190 3.0 8.0 0.00 0.00 0.00 70 1029.1
20181115101010 51 166 2.0 7.0 0.00 0.00 0.00 73 1029.2
20181115100010 51 214 3.0 7.0 0.00 0.00 0.00 72 1029.3
20181115095513 51 203 3.0 7.0 0.00 0.00 0.00 71 1029.2
20181115095010 51 178 2.0 5.0 0.00 0.00 0.00 71 1029.2
20181115093514 51 67 0.0 2.0 0.00 0.00 0.00 71 1029.3
20181115093010 51 65 0.0 2.0 0.00 0.00 0.00 73 1029.4
20181115092514 51 65 0.0 2.0 0.00 0.00 0.00 73 1029.3
20181115092010 50 65 0.0 1.0 0.00 0.00 0.00 74 1029.4
20181115090514 48 0 0.0 0.0 0.00 0.00 0.00 83 1029.4
20181115090010 47 0 0.0 0.0 0.00 0.00 0.00 84 1029.3
20181115085514 46 0 0.0 0.0 0.00 0.00 0.00 85 1029.3
20181115084010 44 62 0.0 1.0 0.00 0.00 0.00 89 1029.2
20181115082010 42 0 0.0 0.0 0.00 0.00 0.00 91 1029.2
20181115080011 41 0 0.0 0.0 0.00 0.00 0.00 92 1029.2
20181115074516 40 0 0.0 0.0 0.00 0.00 0.00 94 1029.1
20181115073513 39 0 0.0 0.0 0.00 0.00 0.00 94 1029.2
20181115072513 38 0 0.0 0.0 0.00 0.00 0.00 93 1029.1
20181115071010 39 0 0.0 0.0 0.00 0.00 0.00 94 1029.2
20181115070513 39 0 0.0 0.0 0.00 0.00 0.00 94 1029.1
20181115070010 38 0 0.0 0.0 0.00 0.00 0.00 94 1029.1
20181115065010 38 0 0.0 0.0 0.00 0.00 0.00 94 1029.0
20181115064514 38 0 0.0 0.0 0.00 0.00 0.00 94 1029.0
20181115064010 38 0 0.0 0.0 0.00 0.00 0.00 93 1029.0
20181115063514 38 0 0.0 0.0 0.00 0.00 0.00 93 1029.0
20181115062513 38 0 0.0 0.0 0.00 0.00 0.00 94 1029.1
20181115062010 38 0 0.0 0.0 0.00 0.00 0.00 94 1029.0
20181115055513 38 58 0.0 2.0 0.00 0.00 0.00 94 1028.6
20181115054513 38 0 0.0 0.0 0.00 0.00 0.00 94 1028.7
20181115053513 38 0 0.0 0.0 0.00 0.00 0.00 94 1028.7
20181115053010 38 0 0.0 0.0 0.00 0.00 0.00 94 1028.6
20181115052514 38 0 0.0 0.0 0.00 0.00 0.00 94 1028.6
20181115052010 38 0 0.0 0.0 0.00 0.00 0.00 94 1028.6
20181115051513 38 0 0.0 0.0 0.00 0.00 0.00 94 1028.5
20181115051011 38 0 0.0 0.0 0.00 0.00 0.00 94 1028.5
20181115050514 38 0 0.0 0.0 0.00 0.00 0.00 94 1028.5
20181115045513 37 0 0.0 0.0 0.00 0.00 0.00 94 1028.6
20181115045010 37 0 0.0 0.0 0.00 0.00 0.00 93 1028.6
20181115044513 38 0 0.0 0.0 0.00 0.00 0.00 93 1028.6
20181115044010 38 0 0.0 0.0 0.00 0.00 0.00 93 1028.6
20181115043010 38 0 0.0 0.0 0.00 0.00 0.00 93 1028.5
20181115041514 39 0 0.0 0.0 0.00 0.00 0.00 94 1028.4
20181115041010 38 0 0.0 0.0 0.00 0.00 0.00 94 1028.4
20181115040010 38 0 0.0 0.0 0.00 0.00 0.00 93 1028.4
20181115035009 38 0 0.0 0.0 0.00 0.00 0.00 93 1028.5
20181115034513 38 0 0.0 0.0 0.00 0.00 0.00 93 1028.5
20181115034010 38 0 0.0 0.0 0.00 0.00 0.00 93 1028.5
20181115033513 39 0 0.0 0.0 0.00 0.00 0.00 94 1028.5
20181115033010 39 0 0.0 0.0 0.00 0.00 0.00 94 1028.6
20181115032513 39 0 0.0 0.0 0.00 0.00 0.00 95 1028.6
20181115031513 38 0 0.0 0.0 0.00 0.00 0.00 94 1028.6
20181115030513 38 58 0.0 1.0 0.00 0.00 0.00 95 1028.7
20181115025009 37 0 0.0 0.0 0.00 0.00 0.00 94 1028.8
20181115024513 37 0 0.0 0.0 0.00 0.00 0.00 94 1028.7
20181115024010 37 0 0.0 0.0 0.00 0.00 0.00 94 1028.6
20181115023010 37 0 0.0 0.0 0.00 0.00 0.00 94 1028.7
20181115022513 37 0 0.0 0.0 0.00 0.00 0.00 94 1028.8
20181115021009 37 0 0.0 0.0 0.00 0.00 0.00 94 1028.8
20181115020513 37 0 0.0 0.0 0.00 0.00 0.00 94 1028.7
20181115015513 37 0 0.0 0.0 0.00 0.00 0.00 94 1028.8
20181115014009 37 0 0.0 0.0 0.00 0.00 0.00 94 1028.8
20181115012010 37 0 0.0 0.0 0.00 0.00 0.00 93 1028.9
20181115011513 37 0 0.0 0.0 0.00 0.00 0.00 93 1028.9
20181115010010 38 60 0.0 1.0 0.00 0.00 0.00 94 1029.1
20181115005513 38 0 0.0 0.0 0.00 0.00 0.00 93 1029.0
20181115005011 37 0 0.0 0.0 0.00 0.00 0.00 93 1029.0
20181115004009 38 0 0.0 0.0 0.00 0.00 0.00 93 1029.0
20181115003010 38 0 0.0 0.0 0.00 0.00 0.00 93 1029.0
20181115001513 38 58 0.0 2.0 0.00 0.00 0.00 93 1029.0
20181115001010 38 0 0.0 0.0 0.00 0.00 0.00 93 1029.0
20181115000514 38 0 0.0 0.0 0.00 0.00 0.00 92 1029.0
20181115000010 38 0 0.0 0.0 0.00 0.00 0.00 92 1029.1
20181114235514 38 0 0.0 0.0 0.00 0.00 0.00 92 1029.0
20181114234513 38 0 0.0 0.0 0.00 0.00 0.00 92 1029.1
20181114233513 39 0 0.0 0.0 0.00 0.00 0.00 92 1029.2
20181114232009 39 0 0.0 0.0 0.00 0.00 0.00 91 1029.2
20181114231513 39 0 0.0 0.0 0.00 0.00 0.00 91 1029.2
20181114231009 39 0 0.0 0.0 0.00 0.00 0.00 91 1029.1
20181114230514 39 59 0.0 1.0 0.00 0.00 0.00 91 1029.1
20181114230028 40 59 0.0 1.0 0.00 0.00 0.00 90 1029.0
20181114224009 40 59 0.0 1.0 0.00 0.00 0.00 93 1029.0
20181114222513 39 0 0.0 0.0 0.00 0.00 0.00 92 1028.8
20181114221513 39 59 0.0 2.0 0.00 0.00 0.00 92 1028.9
20181114220513 39 0 0.0 0.0 0.00 0.00 0.00 92 1028.8
20181114215514 39 0 0.0 0.0 0.00 0.00 0.00 91 1028.8
20181114214009 39 0 0.0 0.0 0.00 0.00 0.00 91 1028.9
20181114213516 39 0 0.0 0.0 0.00 0.00 0.00 90 1029.0
20181114213010 40 0 0.0 0.0 0.00 0.00 0.00 90 1029.0
20181114212513 40 0 0.0 0.0 0.00 0.00 0.00 90 1029.0
20181114210514 40 0 0.0 0.0 0.00 0.00 0.00 89 1029.1
20181114210010 41 0 0.0 0.0 0.00 0.00 0.00 89 1029.1
20181114205513 41 0 0.0 0.0 0.00 0.00 0.00 89 1029.1
20181114205009 41 0 0.0 0.0 0.00 0.00 0.00 89 1029.2
20181114204513 41 0 0.0 0.0 0.00 0.00 0.00 89 1029.2
20181114203512 41 0 0.0 0.0 0.00 0.00 0.00 89 1029.2
20181114203009 41 0 0.0 0.0 0.00 0.00 0.00 89 1029.1
20181114202513 41 59 0.0 2.0 0.00 0.00 0.00 89 1029.1
20181114202010 41 59 0.0 2.0 0.00 0.00 0.00 90 1029.1
20181114201513 41 59 0.0 1.0 0.00 0.00 0.00 90 1029.2
20181114200513 40 58 0.0 2.0 0.00 0.00 0.00 90 1029.3
20181114194513 40 58 0.0 1.0 0.00 0.00 0.00 90 1029.2
20181114194010 40 0 0.0 0.0 0.00 0.00 0.00 89 1029.2
20181114192009 40 58 1.0 3.0 0.00 0.00 0.00 89 1029.3
20181114191513 40 58 2.0 3.0 0.00 0.00 0.00 89 1029.3
20181114190512 40 56 2.0 4.0 0.00 0.00 0.00 90 1029.4
20181114184512 40 49 0.0 3.0 0.00 0.00 0.00 90 1029.2
20181114184009 40 49 0.0 2.0 0.00 0.00 0.00 90 1029.2
20181114183512 40 49 0.0 2.0 0.00 0.00 0.00 90 1029.2